Regional Weather Roundup
Issued by NWS

Home | Current Version | Previous Version | Graphics & Text | Print | Product List | Glossary On
Versions: 1 2 3 4 5 6 7 8 9 10 11 12 13 14 15 16 17 18 19 20 21 22 23 24 25 26 27 28 29 30 31 32 33 34 35 36 37 38 39 40 41 42 43 44 45 46 47 48 49 50
000
ASUS43 KDMX 211701
RWRIA

WEATHER ROUNDUP FOR IOWA
NATIONAL WEATHER SERVICE DES MOINES IA
1100 AM CST SAT JAN 21 2017

NOTE: "FAIR" INDICATES FEW OR NO CLOUDS BELOW 12,000 FEET WITH NO
SIGNIFICANT WEATHER AND/OR OBSTRUCTIONS TO VISIBILITY.

* - THESE STATIONS ARE NOT NWS STATIONS...THUS NOT UNDER NWS
QUALITY CONTROL.  THEY ALSO DO NOT REPORT WEATHER SUCH
AS PRECIPITATION OR FOG.

IAZ001>003-012>014-020>022-031>034-043>046-211800-
   NORTHWEST IOWA

CITY           SKY/WX    TMP DP  RH WIND       PRES   REMARKS
CARROLL *      CLOUDY    41  39  93 SW12G18   29.42R FOG
CHEROKEE *     FOG       38  38 100 S6        29.40R VSB 1/4 WCI  33
DENISON *      FOG       37  37 100 SW12      29.40S VSB 1   WCI  30
LE MARS *      CLOUDY    39  39 100 SW8       29.42R WCI  34
ORANGE CITY *  FOG       37  37 100 SW7       29.39R VSB 1/4 WCI  32
SHELDON *      FOG       37  37 100 S6        29.37R VSB<1/4 WCI  33
SIOUX CITY     PTSUNNY   43  38  82 W8        29.42R
SPENCER        FOG       36  36 100 S5        29.39R VSB 3/4 WCI  32
STORM LAKE *   FOG       39  39 100 SW13      29.40R VSB 1/2 WCI  32
$$

IAZ055>058-069>071-079>083-090>094-211800-
   SOUTHWEST IOWA

CITY           SKY/WX    TMP DP  RH WIND       PRES   REMARKS
ATLANTIC *     FOG       39  39 100 W10       29.44R VSB 1/4 WCI  32
AUDUBON *      CLOUDY    39  37  93 SW12      29.43S FOG     WCI  32
CLARINDA *     CLOUDY    41  41 100 SW10      29.50R FOG
COUNCIL BLFS * CLOUDY    39  39 100 SW6       29.44S WCI  35
CRESTON *      CLOUDY    41  41 100 SW10      29.47R FOG
HARLAN  *      CLOUDY    39  39 100 SW10      29.46S FOG     WCI  32
LAMONI         FOG       42  41  96 SW12      29.47R VSB 3/4
RED OAK *      CLOUDY    39  39 100 SW10      29.48R FOG     WCI  32
SHENANDOAH *   CLOUDY    39  39 100 SW8       29.49R FOG     WCI  34
$$

IAZ047>049-059>061-072>074-084-211800-
   CENTRAL IOWA

CITY           SKY/WX    TMP DP  RH WIND       PRES   REMARKS
AMES           CLOUDY    43  43 100 SW12      29.43R
ANKENY *       CLOUDY    45  45 100 SW8       29.45S FOG
BOONE *        FOG       41  41 100 SW8       29.41S VSB 3/4
CHARITON *     CLOUDY    43  43 100 SW8       29.46R FOG
DES MOINES     CLOUDY    45  43  93 SW9       29.44S FOG
GRINNELL*      FOG       42  42  98 SW14      29.45S VSB<1/4
KNOXVILLE *    CLOUDY    46  46 100 SW8       29.43F
MARSHALLTOWN   CLOUDY    44  44 100 SW9       29.41F FOG
NEWTON *       CLOUDY    43  43 100 SW8       29.43S FOG
PELLA *        CLOUDY    46  45  98 SW9       29.46S FOG
PERRY *        CLOUDY    42  41  97 SW7       29.43F FOG
$$

IAZ004>006-015-016-023>025-035-036-211800-
   NORTH CENTRAL IOWA

CITY           SKY/WX    TMP DP  RH WIND       PRES   REMARKS
ALGONA *       CLOUDY    37  37 100 S8        29.40R WCI  31
CLARION *      FOG       37  37 100 S8        29.41R VSB 1/4 WCI  31
ESTHERVILLE    CLOUDY    35  35 100 S3        29.38R FOG
FORT DODGE *   CLOUDY    39  37  93 S6        29.42R WCI  35
MASON CITY     FOG       36  35  96 S9        29.40S VSB 1/4 WCI  29
FOREST CITY *  FOG       37  37 100 S3        29.40R VSB 1/2
WEBSTER CITY * FOG       39 N/A N/A SW9       29.40R VSB<1/4 WCI  33
IOWA FALLS *   FOG       42  41  97 SW7       29.42S VSB<1/4
$$

IAZ007>011-017>019-026>030-037>042-050>054-066-211800-
   NORTHEAST IOWA

CITY           SKY/WX    TMP DP  RH WIND       PRES   REMARKS
CEDAR RAPIDS   FOG       43  43 100 SW9       29.44R VSB 3/4
CHARLES CITY * FOG       37  37 100 CALM      29.41S VSB<1/4
CLINTON *      PTSUNNY   48  45  89 SW16      29.46S
DECORAH *      FOG       37  37 100 SE6       29.40S VSB<1/4 WCI  33
DUBUQUE        FOG       43  43 100 S7        29.44S VSB<1/4
MONTICELLO *   FOG       43  43 100 S5        29.45R VSB 1/2
OELWEIN *      FOG       39  39 100 S7        29.43S VSB<1/4 WCI  34
WATERLOO       FOG       43  42  97 S7        29.42R VSB 1/4
$$

IAZ064-065-067-068-078-211800-
   EAST CENTRAL IOWA

CITY           SKY/WX    TMP DP  RH WIND       PRES   REMARKS
DAVENPORT      CLOUDY    47  42  83 SW14      29.47R
IOWA CITY      CLOUDY    45  44  97 S6        29.48R FOG
MUSCATINE *    CLOUDY    43  43 100 S8        29.49S FOG
QUAD CITIES    MOSUNNY   51  43  74 SW9G20    29.45R
$$

IAZ062-063-075>077-085>089-095>099-211800-
   SOUTHEAST IOWA

CITY           SKY/WX    TMP DP  RH WIND       PRES   REMARKS
BURLINGTON     SUNNY     49  44  83 SW15      29.49R
FAIRFIELD *    FOG       45  45 100 SW12      29.47S VSB 1/2
FORT MADISON * SUNNY     52  52 100 SW12      29.51R
KEOKUK *       SUNNY     50 N/A N/A SW17      29.50R
OSKALOOSA *    CLOUDY    43  43  99 SW9       29.47R FOG
OTTUMWA        CLOUDY    44  42  93 SW9       29.46S FOG
WASHINGTON *   CLOUDY    45  45 100 SW7       29.48S FOG
$$

ABBREVIATIONS USED IN REMARKS
   TC - TEMPERATURES IN CELSIUS
  WCI - WIND CHILL INDEX
   HX - HEAT INDEX
  VSB - VISIBILITY
$$





USA.gov is the U.S. government's official web portal to all federal, state and local government web resources and services.